Regional Weather Roundup
Issued by NWS

Home | Current Version | Previous Version | Graphics & Text | Print | Product List | Glossary On
Versions: 1 2 3 4 5 6 7 8 9 10 11 12 13 14 15 16 17 18 19 20 21 22 23 24 25 26 27 28 29 30 31 32 33 34 35 36 37 38 39 40 41 42 43 44 45 46 47 48 49 50
000
ASUS43 KBIS 270520
RWRND

NORTH DAKOTA REGIONAL WEATHER ROUNDUP
NATIONAL WEATHER SERVICE BISMARCK ND
1200 AM CDT MON APR 27 2015

NOTE: "FAIR" INDICATES FEW OR NO CLOUDS BELOW 12,000 FEET WITH NO
SIGNIFICANT WEATHER AND/OR OBSTRUCTIONS TO VISIBILITY.


NDZ001>003-009>011-017-270600-
NORTHWEST NORTH DAKOTA

CITY           SKY/WX    TMP DP  RH WIND       PRES   REMARKS
WILLISTON      LGT RAIN  45  36  70 N10       30.21R
MINOT          CLOUDY    47  45  93 SW3       30.17R
MINOT AFB      CLOUDY    46  46 100 NW8       30.17R
$$

NDZ018>021-031>035-040>046-270600-
SOUTHWEST NORTH DAKOTA

CITY           SKY/WX    TMP DP  RH WIND       PRES   REMARKS
BISMARCK       CLOUDY    48  45  89 N3        30.17R FOG
DICKINSON      LGT RAIN  43  41  93 NW3       30.16R FOG
GARRISON         N/A     45  44  97 CALM      30.17R
HETTINGER ARPT FOG       43  42  97 NE7       30.18R VSB 1/2
$$

NDZ004>008-012>016-024-026-027-054-270600-
NORTHEAST NORTH DAKOTA

CITY           SKY/WX    TMP DP  RH WIND       PRES   REMARKS
GRAND FORKS    PTCLDY    42  30  62 SE5       30.15R
GRND FRKS AFB  PTCLDY    43  25  49 NW7       30.15R
DEVILS LAKE      N/A     45  41  87 CALM      30.16S VSB 1/2
$$

NDZ022-023-025-028>030-036>039-047>053-270600-
SOUTHEAST NORTH DAKOTA

CITY           SKY/WX    TMP DP  RH WIND       PRES   REMARKS
FARGO          PTCLDY    45  30  55 CALM      30.15R
JAMESTOWN      PTCLDY    43  29  57 S5        30.14R
$$



USA.gov is the U.S. government's official web portal to all federal, state and local government web resources and services.